Regional Weather Roundup
Issued by NWS

Home | Current Version | Previous Version | Graphics & Text | Print | Product List | Glossary On
Versions: 1 2 3 4 5 6 7 8 9 10 11 12 13 14 15 16 17 18 19 20 21 22 23 24 25 26 27 28 29 30 31 32 33 34 35 36 37 38 39 40 41 42 43 44 45 46 47 48 49 50
888
ASUS45 KCYS 251310
RWRWY

WYOMING REGIONAL WEATHER ROUNDUP
NATIONAL WEATHER SERVICE CHEYENNE WY
700 AM MDT MON JUL 25 2016

NOTE:  "FAIR" INDICATES FEW OR NO CLOUDS BELOW 12,000 FEET
WITH NO SIGNIFICANT WEATHER AND/OR OBSTRUCTIONS TO VISIBILITY.

WYZ001-251400-
YELLOWSTONE NATIONAL PARK

CITY           SKY/WX    TMP DP  RH WIND       PRES   REMARKS
LK YELLOWSTONE   N/A     38  33  82 NW3       30.40R
W YELLOWSTONE  NOT AVBL

$$
WYZ002>013-054>058-071-098>099-251400-
NORTHERN WYOMING

CITY           SKY/WX    TMP DP  RH WIND       PRES   REMARKS
JACKSON        CLEAR     39  34  81 CALM      30.32R
CODY           FAIR      64  34  32 SW6       30.15R
GREYBULL       FAIR      58  40  51 N3        30.08R
WORLAND        FAIR      57  35  43 SW6       30.09R
SHERIDAN       FAIR      60  44  55 CALM      30.07R
BUFFALO        FAIR      68  38  33 CALM      30.14R
GILLETTE       FAIR      65  53  65 VRB5      30.11R
HULETT         FAIR      70  52  52 CALM      30.12S
NEWCASTLE      FAIR      68  48  49 SE5       30.15R

$$
WYZ014>020-022>026-101>103-251400-
CENTRAL WYOMING

CITY           SKY/WX    TMP DP  RH WIND       PRES   REMARKS
BIG PINEY      FAIR      43  26  51 E9        30.33S
PINEDALE       FAIR      41  32  70 NW6       30.35R
DUBOIS         PTSUNNY   48  28  46 W14       30.32R HAZE
LANDER         FAIR      62  32  32 VRB5      30.19R
RIVERTON       FAIR      63  31  30 CALM      30.18R
CASPER         FAIR      56  48  74 CALM      30.18R
DOUGLAS          N/A    N/A N/A N/A MISG      30.17R

$$
WYZ021-027>030-104>119-251400-
SOUTHERN WYOMING

CITY           SKY/WX    TMP DP  RH WIND       PRES   REMARKS
EVANSTON       FAIR      58  24  27 SW7       30.32R
KEMMERER         N/A     48  28  46 N13       30.33S
FORT BRIDGER   FAIR      58  20  22 CALM      30.34R
ROCK SPRINGS   FAIR      62  18  18 CALM      30.30R
DIXON          FAIR      47  35  61 E3        30.33R
RAWLINS        FAIR      51  38  60 CALM      30.30R
SARATOGA       FAIR      55  36  47 S6G16     30.32R
LARAMIE        FAIR      50  47  89 SE3       30.32R
CHEYENNE       FAIR      57  54  89 S6        30.24S
TORRINGTON     FAIR      61  56  83 E13       30.14R
PINE BLUFFS    FAIR      55  55 100 W5        30.22S

$$




USA.gov is the U.S. government's official web portal to all federal, state and local government web resources and services.